YACHTS Weather Reports


time (UTC)temp
C
wind
direction
speed
KPH
gust
KPH
rain 1hr
cm
rain 24hr
cm
rain mn
cm
humidity
%
barometer
mb
20260906172108 13 0 0.0 0.0 0.15 1.40 1.40 96 1016.9
20260906171555 12 0 0.0 0.0 0.10 1.40 1.40 95 1016.8
20260906171043 13 0 0.0 0.0 0.10 1.35 1.37 95 1016.8
20260906170529 13 0 0.0 0.0 0.00 1.27 1.27 96 1016.8
20260906170018 13 0 0.0 0.0 0.00 1.24 1.24 96 1016.7
20260906165503 13 0 0.0 0.0 0.03 1.24 1.24 96 1016.7
20260906164950 13 0 0.0 11.3 0.03 1.24 1.24 96 1016.7
20260906164437 13 274 0.0 11.3 0.03 1.24 1.24 96 1016.7
20260906163411 13 0 0.0 0.0 0.03 1.24 1.24 96 1016.5
20260906163001 12 0 0.0 0.0 0.05 1.24 1.24 95 1016.5
20260906162858 12 0 0.0 0.0 0.05 1.24 1.24 95 1016.5
20260906161833 13 0 0.0 4.8 0.05 1.24 1.24 95 1016.3
20260906161319 13 0 0.0 0.0 0.05 1.24 1.24 95 1016.3
20260906160806 13 0 0.0 0.0 0.05 1.24 1.24 95 1016.3
20260906160253 13 0 0.0 0.0 0.05 1.24 1.24 96 1016.3
20260906155740 13 0 0.0 0.0 0.10 1.22 1.24 95 1016.3
20260906155227 13 0 0.0 0.0 0.10 1.22 1.22 96 1016.3
20260906154714 12 0 0.0 0.0 0.10 1.22 1.22 96 1016.3
20260906154201 12 0 0.0 0.0 0.10 1.22 1.22 95 1016.3
20260906153648 12 0 0.0 0.0 0.15 1.22 1.22 95 1016.4
20260906153135 12 0 0.0 0.0 0.15 1.22 1.22 95 1016.3
20260906152622 12 0 0.0 0.0 0.33 1.22 1.22 95 1016.3
20260906152109 12 0 0.0 0.0 0.33 1.19 1.19 95 1016.2
20260906151556 12 0 0.0 0.0 0.46 1.19 1.19 95 1016.1
20260906151043 12 0 0.0 0.0 0.46 1.19 1.19 95 1016.2
20260906150530 12 0 0.0 0.0 0.69 1.19 1.19 95 1016.2
20260906150018 12 0 0.0 0.0 0.69 1.19 1.19 95 1016.2
20260906145504 12 0 0.0 0.0 0.74 1.17 1.17 95 1016.2
20260906144438 12 0 0.0 0.0 0.81 1.12 1.12 95 1016.2
20260906143925 12 0 0.0 0.0 0.86 1.12 1.12 95 1016.2
20260906143412 12 0 0.0 0.0 0.86 1.09 1.09 95 1016.2
20260906142859 12 0 0.0 0.0 0.76 1.04 1.04 95 1016.2
20260906142347 12 0 0.0 0.0 0.76 0.91 0.94 95 1016.3
20260906141833 12 0 0.0 0.0 0.74 0.81 0.84 95 1016.1
20260906141320 12 0 0.0 0.0 0.74 0.76 0.76 95 1016.0
20260906140807 12 0 0.0 0.0 0.51 0.71 0.71 95 1016.0
20260906140254 12 0 0.0 0.0 0.51 0.61 0.61 95 1015.9
20260906135741 12 0 0.0 0.0 0.38 0.41 0.43 95 1016.0
20260906135228 12 0 0.0 0.0 0.38 0.38 0.38 95 1015.9
20260906134715 12 0 0.0 0.0 0.30 0.36 0.36 95 1015.8
20260906134202 12 0 0.0 0.0 0.30 0.33 0.33 95 1015.8
20260906133649 12 0 0.0 0.0 0.20 0.25 0.28 95 1015.7
20260906133136 12 0 0.0 0.0 0.20 0.20 0.20 95 1015.7
20260906132623 12 0 0.0 0.0 0.10 0.18 0.18 95 1015.6
20260906132110 12 0 0.0 0.0 0.10 0.13 0.13 95 1015.7
20260906131557 12 0 0.0 0.0 0.00 0.00 0.00 95 1015.6
20260906131044 12 0 0.0 0.0 0.00 0.00 0.00 95 1015.6
20260906130531 12 0 0.0 0.0 0.00 0.00 0.00 95 1015.6
20260906130018 12 0 0.0 0.0 0.00 0.00 0.00 95 1015.5
20260906125505 12 0 0.0 0.0 0.00 0.00 0.00 95 1015.6
20260906124952 12 0 0.0 0.0 0.00 0.00 0.00 95 1015.6
20260906124439 12 0 0.0 0.0 0.00 0.00 0.00 95 1015.6
20260906123926 12 0 0.0 0.0 0.00 0.00 0.00 95 1015.5
20260906123413 12 0 0.0 0.0 0.00 0.00 0.00 95 1015.5
20260906122900 12 0 0.0 0.0 0.00 0.00 0.00 95 1015.5
20260906122347 12 0 0.0 0.0 0.00 0.00 0.00 95 1015.6
20260906121834 12 0 0.0 0.0 0.00 0.00 0.00 95 1015.6
20260906121321 12 0 0.0 0.0 0.00 0.00 0.00 95 1015.6
20260906120808 12 0 0.0 0.0 0.00 0.00 0.00 95 1015.6
20260906120255 11 0 0.0 0.0 0.00 0.00 0.00 95 1015.6
20260906115742 12 0 0.0 0.0 0.00 0.03 0.00 95 1015.5
20260906115229 12 0 0.0 0.0 0.00 0.03 0.00 95 1015.5
20260906114716 12 0 0.0 0.0 0.00 0.03 0.00 95 1015.5
20260906114203 12 0 0.0 0.0 0.00 0.03 0.00 95 1015.5
20260906113650 11 0 0.0 0.0 0.00 0.03 0.00 95 1015.4
20260906113137 11 0 0.0 0.0 0.00 0.03 0.00 95 1015.5
20260906112111 11 0 0.0 0.0 0.00 0.03 0.00 95 1015.4
20260906111558 11 0 0.0 0.0 0.00 0.03 0.00 95 1015.4
20260906111045 11 0 0.0 0.0 0.00 0.03 0.00 95 1015.4
20260906110532 11 0 0.0 0.0 0.00 0.03 0.00 95 1015.3
20260906110019 11 0 0.0 0.0 0.00 0.03 0.00 95 1015.3
20260906105506 11 0 0.0 0.0 0.00 0.03 0.00 95 1015.4
20260906104953 11 0 0.0 0.0 0.00 0.03 0.00 95 1015.4
20260906104440 11 0 0.0 0.0 0.00 0.03 0.00 95 1015.4
20260906103927 11 0 0.0 0.0 0.00 0.03 0.00 95 1015.5
20260906103414 11 0 0.0 0.0 0.00 0.03 0.00 95 1015.5
20260906102901 11 0 0.0 0.0 0.00 0.03 0.00 95 1015.5
20260906101835 11 0 0.0 0.0 0.00 0.03 0.00 95 1015.5
20260906101322 11 0 0.0 0.0 0.00 0.03 0.00 95 1015.5
20260906100809 11 0 0.0 0.0 0.00 0.03 0.00 95 1015.6
20260906100256 11 0 0.0 0.0 0.00 0.03 0.00 95 1015.5
20260906095743 11 0 0.0 0.0 0.00 0.03 0.00 95 1015.5
20260906095230 11 0 0.0 0.0 0.00 0.03 0.00 95 1015.5
20260906094717 11 0 0.0 0.0 0.00 0.03 0.00 95 1015.5
20260906094204 11 0 0.0 0.0 0.00 0.03 0.00 95 1015.5
20260906093651 11 0 0.0 0.0 0.00 0.03 0.00 95 1015.5
20260906093138 11 0 0.0 0.0 0.00 0.03 0.00 95 1015.5
20260906092112 11 0 0.0 0.0 0.00 0.03 0.00 95 1015.5
20260906091601 11 0 0.0 0.0 0.00 0.03 0.00 95 1015.4
20260906091045 11 0 0.0 0.0 0.00 0.03 0.00 95 1015.4
20260906090532 11 0 0.0 0.0 0.00 0.03 0.00 95 1015.4
20260906090019 11 0 0.0 0.0 0.00 0.03 0.00 95 1015.4
20260906085506 11 0 0.0 0.0 0.00 0.03 0.00 95 1015.4
20260906084953 11 0 0.0 0.0 0.00 0.03 0.00 95 1015.4
20260906084441 11 0 0.0 0.0 0.00 0.03 0.00 95 1015.4
20260906083928 11 0 0.0 0.0 0.00 0.03 0.00 95 1015.5
20260906083414 11 0 0.0 0.0 0.00 0.03 0.00 95 1015.5
20260906082901 11 0 0.0 0.0 0.00 0.03 0.00 95 1015.4
20260906082348 11 0 0.0 0.0 0.00 0.03 0.00 94 1015.5
20260906081835 11 0 0.0 0.0 0.00 0.03 0.00 95 1015.4
20260906081322 11 0 0.0 0.0 0.00 0.03 0.00 95 1015.4
20260906080809 11 0 0.0 0.0 0.00 0.03 0.00 95 1015.3
20260906080256 11 0 0.0 0.0 0.00 0.03 0.00 95 1015.2
20260906075743 11 0 0.0 0.0 0.00 0.03 0.00 94 1015.2
20260906075230 11 0 0.0 0.0 0.00 0.03 0.03 94 1015.2
20260906074717 11 0 0.0 0.0 0.00 0.03 0.03 94 1015.2
20260906074204 11 0 0.0 0.0 0.00 0.03 0.03 94 1015.1
20260906073651 11 0 0.0 0.0 0.00 0.03 0.03 94 1015.2
20260906073138 11 0 0.0 0.0 0.00 0.03 0.03 94 1015.2
20260906072625 11 0 0.0 0.0 0.00 0.03 0.03 94 1015.2
20260906072112 11 0 0.0 0.0 0.00 0.03 0.03 94 1015.3
20260906071559 11 0 0.0 0.0 0.00 0.03 0.03 94 1015.3
20260906071046 11 0 0.0 0.0 0.00 0.03 0.03 94 1015.3
20260906070533 11 0 0.0 0.0 0.00 0.03 0.03 94 1015.3
20260906070020 11 0 0.0 0.0 0.00 0.03 0.03 94 1015.4
20260906065507 11 0 0.0 0.0 0.00 0.03 0.03 94 1015.4
20260906064954 11 0 0.0 0.0 0.00 0.03 0.03 94 1015.4
20260906064441 11 0 0.0 0.0 0.00 0.03 0.03 94 1015.4
20260906063928 11 0 0.0 0.0 0.00 0.03 0.03 94 1015.4
20260906063416 11 0 0.0 0.0 0.00 0.03 0.03 94 1015.5
20260906062902 11 0 0.0 0.0 0.00 0.03 0.03 94 1015.4
20260906062349 11 0 0.0 0.0 0.00 0.03 0.03 94 1015.5
20260906061836 11 0 0.0 0.0 0.00 0.03 0.03 94 1015.5
20260906061323 11 0 0.0 0.0 0.00 0.03 0.03 94 1015.6
20260906060810 11 0 0.0 0.0 0.00 0.03 0.03 94 1015.6
20260906060257 11 0 0.0 0.0 0.00 0.03 0.03 94 1015.5
20260906055746 11 0 0.0 0.0 0.00 0.03 0.03 93 1015.5
20260906055231 11 0 0.0 0.0 0.00 0.03 0.03 93 1015.5
20260906054718 11 0 0.0 0.0 0.00 0.03 0.03 93 1015.6
20260906054205 11 0 0.0 0.0 0.00 0.03 0.03 93 1015.6
20260906053652 11 0 0.0 0.0 0.00 0.03 0.03 93 1015.7
20260906053139 11 0 0.0 0.0 0.00 0.03 0.03 93 1015.6
20260906052626 12 0 0.0 0.0 0.00 0.03 0.03 93 1015.5
20260906052113 11 0 0.0 0.0 0.00 0.03 0.03 93 1015.5
20260906051600 11 0 0.0 0.0 0.00 0.03 0.03 93 1015.6
20260906051048 11 0 0.0 0.0 0.00 0.03 0.03 93 1015.5
20260906050534 12 0 0.0 0.0 0.00 0.03 0.03 93 1015.5
20260906050021 12 0 0.0 0.0 0.00 0.03 0.03 93 1015.6
20260906045508 12 0 0.0 0.0 0.00 0.03 0.03 93 1015.6
20260906044955 12 0 0.0 0.0 0.00 0.03 0.03 92 1015.6
20260906044442 12 0 0.0 0.0 0.00 0.03 0.03 92 1015.5
20260906043929 12 0 0.0 0.0 0.00 0.03 0.03 92 1015.6
20260906043417 12 0 0.0 0.0 0.00 0.03 0.03 92 1015.6
20260906042903 12 0 0.0 0.0 0.00 0.03 0.03 92 1015.7
20260906042350 12 0 0.0 0.0 0.00 0.03 0.03 92 1015.5
20260906041837 12 0 0.0 0.0 0.00 0.03 0.03 92 1015.5
20260906041324 12 0 0.0 0.0 0.00 0.03 0.03 92 1015.5
20260906040811 12 0 0.0 0.0 0.00 0.03 0.03 92 1015.6
20260906040258 12 0 0.0 0.0 0.00 0.03 0.03 92 1015.6
20260906035745 12 0 0.0 0.0 0.00 0.03 0.03 92 1015.5
20260906034719 12 0 0.0 0.0 0.00 0.03 0.03 91 1015.5
20260906034206 12 0 0.0 0.0 0.00 0.03 0.03 91 1015.5
20260906033653 12 0 0.0 0.0 0.00 0.03 0.03 91 1015.5
20260906033140 12 0 0.0 0.0 0.00 0.03 0.03 91 1015.4
20260906032627 12 0 0.0 0.0 0.00 0.03 0.03 91 1015.3
20260906032114 13 0 0.0 0.0 0.00 0.03 0.03 91 1015.2
20260906031601 13 0 0.0 0.0 0.00 0.03 0.03 90 1015.2
20260906031048 13 0 0.0 0.0 0.00 0.03 0.03 90 1015.3
20260906030535 13 0 0.0 0.0 0.00 0.03 0.03 90 1015.3
20260906030022 13 0 0.0 0.0 0.00 0.03 0.03 90 1015.3
20260906025509 14 0 0.0 0.0 0.00 0.18 0.03 90 1015.3
20260906024956 14 0 0.0 0.0 0.00 0.18 0.03 90 1015.3
20260906024443 13 0 0.0 0.0 0.00 0.18 0.03 89 1015.4
20260906023930 13 0 0.0 0.0 0.00 0.18 0.03 89 1015.5
20260906023417 14 0 0.0 0.0 0.00 0.18 0.03 89 1015.5
20260906022904 14 0 0.0 0.0 0.00 0.18 0.03 89 1015.4
20260906022351 14 0 0.0 0.0 0.00 0.18 0.03 88 1015.5
20260906021838 15 0 0.0 0.0 0.00 0.18 0.03 88 1015.5
20260906021325 15 0 0.0 0.0 0.00 0.18 0.03 88 1015.5
20260906020812 15 0 0.0 0.0 0.00 0.18 0.03 88 1015.6
20260906020259 15 0 0.0 0.0 0.00 0.18 0.03 88 1015.6
20260906015746 15 0 0.0 0.0 0.00 0.18 0.03 88 1015.7
20260906014720 15 0 0.0 0.0 0.00 0.18 0.03 88 1015.7
20260906014207 15 0 0.0 0.0 0.00 0.18 0.03 88 1015.7
20260906013654 15 0 0.0 0.0 0.00 0.18 0.03 88 1015.8
20260906013141 15 0 0.0 0.0 0.00 0.18 0.03 88 1015.7
20260906012628 16 0 0.0 0.0 0.00 0.18 0.03 89 1015.7
20260906012115 15 0 0.0 0.0 0.00 0.18 0.03 89 1015.7
20260906011602 15 0 0.0 0.0 0.00 0.18 0.03 89 1015.8
20260906011049 15 0 0.0 0.0 0.00 0.18 0.03 89 1015.8
20260906010536 15 0 0.0 0.0 0.00 0.18 0.03 90 1015.8
20260906010023 15 0 0.0 0.0 0.00 0.18 0.03 90 1015.8
20260906005510 14 0 0.0 0.0 0.00 0.18 0.03 90 1015.7
20260906004957 15 0 0.0 3.2 0.00 0.18 0.03 90 1015.8
20260906004444 14 0 0.0 3.2 0.00 0.18 0.03 90 1015.7
20260906003931 15 253 0.0 3.2 0.00 0.18 0.03 90 1015.7
20260906003418 15 0 0.0 0.0 0.00 0.18 0.03 90 1015.6
20260906002905 15 0 0.0 6.4 0.00 0.18 0.03 90 1015.5
20260906002352 15 302 0.0 6.4 0.00 0.18 0.03 90 1015.6
20260906001839 15 317 3.2 6.4 0.00 0.18 0.03 90 1015.5
20260906001326 15 0 0.0 9.7 0.00 0.18 0.03 90 1015.5
20260906000813 15 320 0.0 9.7 0.00 0.18 0.03 90 1015.4
20260906000300 15 295 1.6 9.7 0.00 0.18 0.03 90 1015.4
20260905235747 15 326 0.0 8.0 0.00 0.18 0.03 90 1015.4
20260905235235 15 0 0.0 0.0 0.00 0.18 0.03 91 1015.4
20260905234721 15 0 0.0 9.7 0.00 0.18 0.03 91 1015.4
20260905234208 15 302 0.0 9.7 0.00 0.18 0.03 91 1015.4
20260905233655 15 292 3.2 9.7 0.00 0.18 0.03 91 1015.5
20260905233142 15 288 6.4 9.7 0.00 0.18 0.03 91 1015.6
20260905232629 16 295 6.4 9.7 0.00 0.18 0.03 91 1015.6
20260905232116 15 313 6.4 9.7 0.00 0.18 0.03 92 1015.7
20260905231603 15 0 0.0 11.3 0.00 0.18 0.03 92 1015.8
20260905231050 15 315 4.8 11.3 0.00 0.18 0.03 92 1015.8
20260905230537 15 302 6.4 11.3 0.00 0.18 0.03 92 1015.9
20260905230024 15 306 3.2 8.0 0.00 0.18 0.03 92 1015.9
20260905225511 15 0 3.2 3.2 0.00 0.20 0.03 93 1016.0
20260905224958 15 0 0.0 8.0 0.00 0.20 0.03 93 1016.0
20260905224445 14 0 3.2 8.0 0.00 0.20 0.03 93 1016.1
20260905223932 14 277 0.0 8.0 0.00 0.20 0.03 94 1016.0
20260905223419 14 323 4.8 8.0 0.00 0.20 0.03 93 1016.1
20260905222353 14 271 0.0 11.3 0.00 0.20 0.03 93 1016.3
20260905220814 15 266 8.0 12.9 0.00 0.20 0.03 93 1016.4
20260905220301 14 289 8.0 12.9 0.00 0.20 0.03 94 1016.3
20260905215748 14 277 4.8 11.3 0.00 0.20 0.03 94 1016.3
20260905215236 14 291 6.4 11.3 0.00 0.20 0.03 94 1016.3
20260905214722 14 280 8.0 11.3 0.00 0.20 0.03 94 1016.3
20260905214209 14 285 6.4 12.9 0.00 0.20 0.03 94 1016.4
20260905213656 14 267 3.2 12.9 0.00 0.20 0.03 94 1016.4
20260905213143 15 303 8.0 12.9 0.00 0.20 0.03 94 1016.4
20260905212630 14 302 4.8 11.3 0.00 0.20 0.03 94 1016.4
20260905212117 14 285 4.8 9.7 0.00 0.20 0.03 94 1016.5
20260905211604 14 305 4.8 11.3 0.00 0.20 0.03 94 1016.5
20260905211051 14 284 8.0 11.3 0.00 0.20 0.03 94 1016.5
20260905210538 15 275 8.0 11.3 0.00 0.20 0.03 94 1016.5
20260905210025 14 261 4.8 12.9 0.00 0.20 0.03 94 1016.5
20260905205512 14 0 0.0 12.9 0.00 0.20 0.03 94 1016.5
20260905204959 14 0 3.2 12.9 0.00 0.20 0.03 94 1016.6
20260905204445 14 330 6.4 11.3 0.00 0.20 0.03 94 1016.6
20260905203932 14 303 6.4 11.3 0.00 0.20 0.03 94 1016.5
20260905203419 14 302 3.2 11.3 0.00 0.20 0.03 94 1016.5
20260905202906 15 301 1.6 11.3 0.00 0.20 0.03 94 1016.6
20260905200815 14 292 4.8 12.9 0.00 0.20 0.03 95 1016.7
20260905200301 14 299 9.7 12.9 0.00 0.20 0.03 95 1016.7
20260905195748 14 291 8.0 11.3 0.00 0.20 0.03 95 1016.7
20260905195235 13 291 8.0 11.3 0.00 0.20 0.03 95 1016.7
20260905194723 13 298 0.0 11.3 0.00 0.20 0.03 95 1016.8
20260905194209 14 291 9.7 11.3 0.00 0.20 0.03 94 1016.8
20260905193656 14 289 3.2 11.3 0.00 0.20 0.03 94 1016.8
20260905193143 15 309 11.3 14.5 0.00 0.20 0.03 94 1016.8
20260905192630 14 301 9.7 14.5 0.00 0.20 0.03 94 1016.8
20260905192117 15 308 8.0 14.5 0.00 0.20 0.03 95 1016.8
20260905191604 15 312 4.8 14.5 0.00 0.20 0.03 95 1016.8
20260905191051 15 235 6.4 14.5 0.00 0.20 0.03 95 1016.8
20260905190538 14 309 6.4 12.9 0.00 0.20 0.03 95 1016.7
20260905185512 14 333 0.0 11.3 0.00 0.23 0.03 95 1016.8
20260905184959 14 298 3.2 11.3 0.00 0.23 0.03 96 1016.7
20260905184446 13 0 0.0 12.9 0.00 0.23 0.03 95 1016.7
20260905183934 13 319 1.6 12.9 0.00 0.23 0.03 95 1016.8
20260905183420 13 317 3.2 12.9 0.00 0.23 0.03 95 1016.8
20260905182907 13 308 1.6 9.7 0.00 0.23 0.03 95 1016.7
20260905182354 13 0 0.0 6.4 0.00 0.23 0.03 95 1016.7
20260905181843 13 0 0.0 6.4 0.00 0.23 0.03 95 1016.7
20260905180815 13 0 0.0 4.8 0.00 0.23 0.03 96 1016.7
20260905180303 13 271 0.0 4.8 0.00 0.23 0.03 96 1016.8
20260905175749 13 0 0.0 4.8 0.00 0.25 0.03 95 1016.8
20260905174723 13 0 0.0 0.0 0.00 0.25 0.03 96 1016.8
20260905174210 13 0 0.0 0.0 0.00 0.25 0.03 95 1016.8
20260905173657 13 0 0.0 0.0 0.00 0.25 0.03 96 1016.8
20260905173144 13 0 0.0 8.0 0.00 0.25 0.03 95 1016.7
20260905172631 13 0 0.0 8.0 0.00 0.25 0.03 95 1016.7